Temperature
14 14 14 14 14 14 14 14 14 13 13 13 13 13 13 13 13 13 13 14 14 14 14 14 13 13 13 13 13 13 13 13 13 13 13 13 13 13 13 13 13 13 12
13 13 13 13 13 13 13 13 13 13 13 13 13 13 13 13 13 13 13 13 14 14 14 13 13 13 13 13 13 13 13 13 13 13 13 13 13 13 12 12 12 12 12
13 13 13 13 13 13 13 13 13 13 13 13 13 13 13 13 13 13 13 13 13 14 14 13 13 13 13 13 13 13 13 13 13 13 13 13 12 12 12 12 12 12 12
12 12 12 12 12 12 12 12 12 12 12 12 13 13 13 13 13 13 13 13 13 13 13 13 13 13 13 13 13 12 12 13 13 13 12 12 12 12 12 12 12 12 12
12 12 12 12 12 12 12 12 12 12 12 12 12 12 12 12 13 13 13 13 13 13 13 13 13 13 13 13 12 12 12 12 12 12 12 12 12 12 12 12 12 12 12
11 11 11 11 11 11 11 11 11 11 11 12 12 12 12 12 12 12 12 12 12 12 12 12 12 12 13 12 12 12 12 12 12 12 12 12 12 12 12 11 11 11 11
11 11 11 11 11 11 11 11 11 11 11 11 11 11 11 11 12 12 12 12 12 12 12 12 12 12 12 12 12 12 12 12 12 12 12 12 11 11 11 11 11 11 11
11 10 10 10 10 10 10 10 10 10 10 10 10 10 10 11 11 11 11 11 12 12 11 12 11 11 12 12 12 12 12 11 11 11 11 11 11 11 11 11 11 11 10
10 10 10 10 10 10 10 10 10 10 10 10 10 10 10 11 11 11 11 11 11 11 11 11 11 11 11 11 11 11 11 11 11 11 11 11 10 10 10 10 10 10 10
10 10 10 10 10 9 9 9 9 9 9 9 9 9 9 10 10 10 10 10 10 10 10 10 10 10 11 11 11 11 11 11 11 10 10 10 10 10 10 9 9 9 9
9 9 9 9 9 9 9 9 9 9 9 9 9 9 9 9 9 9 9 9 9 10 10 10 10 10 10 10 10 10 10 10 10 10 10 10 9 9 9 9 9 9 9
8 8 8 8 9 9 9 9 9 8 8 8 8 8 8 8 8 8 8 8 9 9 9 9 9 9 9 9 9 9 9 9 9 9 9 9 9 9 9 8 8 8 8
8 8 8 8 8 8 8 8 8 8 8 8 8 8 8 8 8 8 8 8 8 8 8 8 8 8 8 8 8 9 9 9 9 9 8 8 8 8 8 8 8 8 8
7 7 7 7 7 7 7 7 7 8 8 8 8 7 7 7 7 7 7 7 7 7 7 7 7 7 7 8 8 8 8 8 8 8 8 7 8 8 8 8 8 7 7
7 7 7 7 7 7 7 7 7 7 7 7 7 7 7 7 7 7 7 7 7 6 6 7 6 7 7 7 7 7 7 7 7 7 7 7 7 7 7 7 7 7 7
6 6 6 6 6 6 6 6 6 6 6 6 6 6 6 6 6 6 6 6 6 6 5 6 6 6 6 6 6 6 6 6 6 6 6 6 6 6 6 6 6 6 6
6 6 6 6 6 6 6 5 6 6 6 6 6 6 6 6 6 6 6 6 5 5 5 5 5 5 5 5 5 5 5 6 6 6 6 6 6 6 6 6 6 6 5
5 5 5 5 5 5 5 5 5 5 5 5 5 5 5 5 5 5 5 5 5 5 4 4 4 4 4 4 4 5 5 5 5 5 5 5 5 5 5 5 5 5 5
5 5 5 5 5 5 5 5 5 5 5 5 5 5 5 5 4 4 4 4 4 4 4 4 4 4 4 4 4 4 4 4 4 4 4 4 4 4 4 4 4 4 4
5 5 5 4 4 4 4 4 4 4 4 4 4 4 4 4 4 4 3 3 3 3 3 3 3 3 3 3 2 3 3 3 3 4 4 4 4 4 4 4 3 3 3
5 4 4 4 4 4 4 4 4 4 4 4 4 4 3 3 3 3 3 3 2 2 2 2 2 2 2 2 2 2 2 2 2 2 2 2 3 3 3 3 3 2 2
4 4 4 4 4 4 4 4 3 3 3 3 3 3 3 3 3 2 2 2 2 2 2 1 1 1 1 1 1 0 0 0 0 1 1 1 1 2 2 2 2 2 2
4 4 3 3 3 3 3 3 3 3 3 3 2 2 2 2 2 2 2 2 2 1 1 1 0 0 0 -0 -0 -0 -0 -1 -0 -0 -0 0 0 0 1 1 1 1 1
4 3 3 3 3 3 3 3 3 2 2 2 2 2 2 2 2 1 1 1 1 1 1 0 0 -0 -0 -1 -1 -1 -1 -1 -1 -1 -1 -1 -1 -1 -0 0 0 0 0
3 3 3 3 3 3 2 2 2 2 2 2 2 1 1 1 1 1 1 0 0 0 -0 -0 -0 -1 -1 -1 -1 -2 -2 -2 -2 -2 -2 -2 -2 -1 -1 -1 -0 -0 -0
3 3 3 3 2 2 2 2 2 1 1 1 1 1 1 0 0 0 -0 -0 -0 -1 -1 -1 -1 -1 -1 -1 -2 -2 -2 -3 -3 -3 -3 -3 -3 -3 -3 -2 -2 -1 -1
Wind_Speed
5 5 6 6 7 7 7 7 8 8 9 9 10 10 10 10 10 9 7 8 11 11 11 12 11 11 11 11 11 10 10 10 10 10 9 9 9 9 9 9 8 8 8
5 5 6 6 6 7 8 8 8 8 8 8 9 10 11 11 10 10 9 8 11 12 12 12 12 12 12 12 12 12 11 11 11 11 11 11 11 11 11 10 10 10 9
6 5 6 6 6 7 8 7 8 8 8 8 9 10 9 10 10 11 10 9 9 11 13 13 13 13 13 13 13 12 12 11 11 11 12 12 12 12 11 11 11 11 11
6 5 5 6 6 7 6 6 6 7 7 8 8 8 8 8 11 11 10 10 9 9 10 13 13 13 13 13 14 13 13 12 12 12 12 13 13 13 12 12 12 12 12
6 5 5 5 6 6 6 6 6 6 7 8 8 8 8 8 9 10 11 11 10 10 9 9 13 13 13 13 14 14 14 13 13 13 13 13 12 12 13 13 13 13 13
5 5 5 6 6 5 6 6 7 7 7 7 7 8 8 9 9 9 10 10 10 11 11 10 10 11 13 14 14 14 14 14 13 13 13 12 13 13 14 14 14 14 14
5 5 5 5 6 6 7 7 6 7 7 5 5 6 7 9 9 9 8 9 9 10 10 11 10 9 8 12 13 13 13 14 14 13 13 13 14 14 15 15 15 15 15
5 4 5 5 5 6 7 7 7 6 5 5 5 5 5 6 8 8 8 8 9 8 9 10 9 9 8 7 8 10 12 13 15 14 14 14 14 14 15 15 15 16 16
4 4 5 5 5 5 6 6 7 7 6 6 5 5 5 5 4 5 7 7 7 7 6 6 7 8 8 7 7 7 10 12 14 14 14 14 15 15 15 15 15 16 16
4 4 5 4 5 5 5 6 6 6 7 6 5 6 6 5 4 4 5 5 6 6 6 5 6 6 6 6 6 6 8 11 13 14 15 15 15 16 16 16 16 16 16
4 4 4 4 4 4 5 6 5 6 6 6 5 4 5 6 7 7 7 5 5 5 5 5 4 4 4 5 5 6 8 10 12 13 14 15 14 14 15 16 16 17 16
3 4 4 4 4 4 5 5 5 5 5 6 6 5 5 5 5 6 7 6 6 4 4 3 3 3 3 3 4 6 7 8 11 12 13 13 13 13 14 15 16 16 16
3 4 4 4 3 4 4 4 4 4 5 5 5 5 5 5 5 5 6 6 6 5 4 3 3 3 2 3 4 6 6 7 9 11 13 13 13 13 14 15 16 16 16
4 4 4 4 4 4 4 3 3 4 4 4 5 5 4 4 4 4 5 5 6 5 5 5 3 3 3 4 5 6 7 8 9 11 12 13 13 14 15 14 15 16 16
4 4 4 3 3 3 3 3 3 3 4 4 4 4 4 3 3 4 4 4 5 6 6 5 4 3 4 5 6 7 8 8 9 11 12 13 14 14 14 14 14 15 16
4 4 4 3 3 3 3 3 3 3 3 3 3 3 3 3 3 3 4 4 5 6 6 4 4 5 5 5 7 8 8 10 10 11 12 13 14 14 13 14 15 15 16
3 3 3 3 3 3 3 3 3 3 3 3 2 3 3 3 3 3 3 3 4 4 6 5 5 6 7 7 7 8 8 9 9 10 12 13 13 13 13 14 15 16 16
3 3 3 3 3 3 3 3 3 3 3 3 3 3 3 3 3 3 3 3 3 4 5 7 6 5 7 7 8 8 7 8 8 9 11 12 12 13 14 14 15 15 15
2 2 2 2 3 3 2 2 3 3 3 3 3 3 3 3 3 3 4 4 4 4 5 6 6 5 6 6 7 7 8 7 8 9 10 10 11 12 13 13 14 14 14
2 2 2 2 2 2 2 2 2 2 2 2 2 3 3 3 4 4 4 4 4 4 5 5 6 6 5 6 6 6 7 7 7 7 8 9 10 11 12 12 12 12 12
2 2 1 2 2 2 2 3 3 3 3 2 2 2 2 2 3 4 3 4 4 4 4 5 5 5 5 5 5 6 7 8 8 6 6 7 7 7 8 9 10 11 11
2 1 1 2 2 2 2 2 2 2 2 2 2 2 2 2 2 3 4 4 5 5 5 5 5 6 7 6 6 6 7 7 6 5 7 9 7 7 7 8 9 11 12
2 2 2 2 2 2 2 2 2 2 2 2 2 2 1 2 3 3 3 3 4 5 6 6 7 7 8 7 8 8 8 8 9 8 8 8 7 8 7 9 11 10 11
3 3 2 2 2 2 2 2 2 2 2 2 2 2 2 2 2 3 3 4 4 4 5 5 6 7 7 8 8 8 8 9 9 7 7 8 8 8 9 8 9 10 11
3 3 3 3 3 2 2 2 3 2 2 2 2 2 2 2 2 3 3 4 4 4 4 5 6 6 8 9 7 5 6 6 7 7 5 6 7 8 9 8 7 9 11
4 3 3 3 3 3 1 2 3 2 2 2 1 1 2 2 3 4 4 4 4 4 5 5 5 5 6 6 6 5 5 6 6 5 3 4 6 6 5 5 6 7 9
Wind_Direction
252 248 247 242 239 239 237 238 237 235 235 236 236 238 238 237 238 237 231 212 222 233 240 242 242 241 240 240 241 244 245 246 244 248 251 254 257 260 265 264 265 269 272
254 254 251 249 246 243 242 241 242 240 237 238 241 241 242 241 241 240 241 225 218 227 237 243 242 243 244 244 244 244 245 247 248 250 252 253 255 259 263 263 262 267 272
256 254 252 250 251 249 246 245 244 243 242 239 242 243 245 245 244 243 240 240 232 223 229 238 241 243 246 247 247 248 248 249 250 250 252 254 254 256 259 262 262 266 269
259 252 251 251 253 251 248 246 245 243 243 241 243 244 245 246 249 247 242 237 238 237 226 227 237 243 247 249 249 250 247 246 247 250 252 254 255 254 256 260 262 264 266
268 258 254 253 250 249 246 246 246 245 247 246 247 247 247 245 246 246 246 242 238 237 241 225 225 237 244 249 250 252 249 247 247 249 251 253 254 255 258 260 261 263 266
278 267 260 256 249 245 244 244 248 245 248 249 252 252 250 246 244 243 246 246 242 240 241 243 236 233 233 242 246 250 253 252 250 249 250 252 254 255 257 260 261 262 263
286 273 268 260 251 245 245 246 248 247 245 244 253 258 255 247 244 242 242 244 243 242 243 242 241 242 234 230 237 247 253 256 256 253 251 252 254 256 256 258 260 263 264
297 283 272 266 259 252 247 244 246 249 249 236 241 258 261 253 242 239 237 239 243 239 238 240 242 241 244 242 234 236 250 258 260 256 255 255 257 259 260 261 262 264 264
298 289 279 270 269 261 255 250 245 246 249 242 236 240 249 252 272 242 239 239 241 240 239 238 239 242 244 245 248 239 244 251 258 259 259 259 261 262 262 264 265 267 266
298 296 290 281 274 270 265 258 250 249 249 246 243 245 257 267 262 263 246 242 245 245 246 243 242 241 241 243 247 265 257 253 256 260 263 265 265 266 266 266 266 267 268
300 301 294 285 280 275 274 270 262 253 250 249 246 248 254 256 252 257 261 254 250 250 255 254 250 246 248 253 258 268 261 259 263 266 268 268 269 270 271 271 272 272 271
303 308 300 290 286 280 277 276 269 260 254 253 250 244 244 246 250 250 255 257 260 265 265 265 261 261 268 276 284 292 273 269 271 273 274 275 278 280 280 280 279 279 278
302 307 307 302 297 292 287 283 275 268 261 258 257 252 250 254 260 260 260 263 267 273 271 266 267 274 287 295 297 306 288 283 283 283 282 283 285 285 283 283 283 281 281
294 303 307 304 303 301 295 289 280 274 268 262 261 259 257 262 264 260 261 265 269 269 264 262 265 264 285 293 298 298 290 285 285 284 285 286 286 286 284 282 282 282 282
292 298 298 298 305 306 301 294 278 271 265 261 260 261 262 263 260 262 260 255 260 264 263 264 265 266 291 292 298 294 291 291 283 279 280 282 283 283 279 278 280 282 283
284 289 292 292 298 301 296 285 278 279 272 269 267 261 264 266 263 265 264 263 260 260 264 272 279 291 297 293 295 293 289 288 278 276 277 279 280 279 279 281 282 282 281
282 282 283 285 289 293 288 278 274 270 260 261 264 260 263 265 261 261 265 264 261 260 265 277 278 285 287 291 293 292 288 285 282 277 279 278 278 279 280 282 282 280 280
283 281 282 280 284 285 281 272 266 260 256 257 259 259 265 268 269 268 265 262 261 264 265 276 283 284 286 290 290 290 292 289 287 285 283 281 279 279 281 282 281 280 280
287 286 278 270 270 273 273 272 266 264 261 259 260 262 267 272 275 274 272 268 267 266 264 268 278 284 287 292 295 294 292 292 296 294 288 283 282 283 283 284 284 282 281
293 294 295 282 278 277 275 273 265 262 268 274 272 268 273 272 275 279 276 274 273 272 268 269 277 285 288 292 294 297 299 301 300 299 295 295 292 287 282 283 285 286 283
286 284 295 304 298 289 290 282 265 258 262 267 273 274 282 292 297 290 286 288 286 280 281 279 282 287 288 296 295 298 296 301 298 293 301 300 298 292 289 286 284 285 287
271 279 287 295 302 296 312 304 287 267 269 268 275 285 293 294 306 312 312 314 305 288 285 283 283 285 292 297 297 294 296 299 294 300 305 299 296 293 293 291 290 292 294
246 252 265 277 279 285 296 281 272 267 266 272 278 294 309 322 318 318 321 316 308 305 294 286 284 289 294 297 297 294 292 291 288 296 302 291 293 294 297 297 298 294 294
234 238 247 260 271 284 292 279 260 251 254 267 278 283 286 310 328 322 314 313 313 315 308 296 288 291 295 296 290 290 292 292 289 288 291 286 294 297 300 296 295 298 299
228 233 236 239 249 262 271 273 265 240 239 253 269 283 287 297 326 316 305 306 309 318 332 323 312 308 311 310 302 291 289 290 292 293 293 282 294 304 298 288 291 296 299
225 224 226 230 237 249 248 256 266 240 239 249 263 283 301 310 321 312 296 295 301 313 319 318 317 319 317 318 316 297 286 285 292 290 289 292 294 310 303 294 303 307 304
Height
1525 1525 1526 1526 1526 1527 1527 1528 1528 1529 1529 1530 1531 1531 1531 1532 1532 1531 1531 1531 1531 1531 1531 1532 1531 1531 1531 1531 1531 1531 1531 1530 1530 1530 1530 1529 1529 1528 1528 1527 1527 1526 1525
1521 1521 1522 1522 1523 1523 1524 1524 1525 1525 1526 1526 1527 1527 1528 1528 1528 1528 1527 1527 1527 1528 1528 1528 1528 1528 1528 1528 1528 1528 1528 1527 1527 1527 1527 1526 1526 1526 1525 1525 1524 1523 1523
1517 1517 1517 1518 1519 1519 1520 1520 1521 1521 1522 1522 1522 1523 1523 1524 1524 1524 1524 1523 1523 1523 1523 1524 1524 1524 1524 1524 1524 1524 1524 1524 1524 1524 1523 1523 1523 1522 1522 1522 1521 1520 1520
1513 1513 1514 1514 1514 1515 1515 1516 1516 1517 1517 1518 1518 1518 1519 1519 1519 1519 1519 1519 1519 1519 1519 1519 1519 1520 1520 1520 1520 1520 1520 1520 1520 1520 1520 1519 1519 1519 1518 1518 1518 1517 1516
1509 1509 1510 1510 1511 1511 1511 1511 1512 1513 1513 1513 1513 1513 1513 1513 1513 1514 1514 1514 1514 1514 1514 1514 1514 1515 1515 1515 1516 1516 1516 1516 1516 1516 1515 1515 1515 1514 1514 1514 1514 1513 1512
1506 1506 1506 1506 1507 1507 1507 1507 1507 1508 1508 1508 1508 1508 1508 1508 1508 1508 1508 1509 1509 1509 1509 1509 1509 1509 1510 1510 1511 1511 1511 1511 1511 1511 1511 1511 1510 1510 1510 1509 1509 1509 1508
1502 1502 1502 1502 1502 1502 1502 1503 1503 1503 1503 1504 1504 1503 1502 1502 1502 1502 1502 1503 1503 1503 1504 1504 1504 1504 1504 1504 1505 1505 1506 1506 1506 1506 1506 1505 1505 1505 1505 1504 1504 1503 1503
1499 1498 1498 1498 1498 1498 1498 1498 1499 1498 1498 1499 1500 1499 1498 1498 1496 1496 1496 1497 1497 1498 1498 1498 1499 1499 1499 1499 1499 1499 1500 1500 1500 1500 1500 1500 1500 1500 1499 1499 1498 1498 1497
1495 1495 1495 1494 1494 1494 1494 1494 1494 1494 1494 1494 1495 1496 1495 1493 1492 1492 1491 1491 1492 1492 1493 1493 1493 1493 1493 1493 1493 1493 1494 1494 1495 1494 1494 1494 1494 1494 1493 1493 1492 1492 1491
1491 1491 1491 1490 1490 1490 1490 1490 1490 1490 1490 1489 1489 1490 1490 1489 1490 1487 1487 1487 1486 1487 1487 1488 1488 1488 1488 1487 1487 1487 1488 1488 1489 1488 1488 1488 1488 1487 1487 1487 1486 1486 1485
1488 1487 1487 1486 1486 1485 1485 1485 1485 1485 1485 1485 1485 1485 1484 1484 1484 1484 1483 1482 1482 1482 1482 1482 1482 1482 1482 1482 1481 1481 1482 1482 1482 1482 1481 1482 1481 1481 1480 1480 1480 1479 1478
1484 1483 1483 1482 1481 1481 1481 1481 1481 1481 1481 1480 1480 1480 1480 1480 1479 1479 1478 1477 1477 1477 1477 1477 1477 1477 1476 1476 1476 1475 1475 1475 1475 1475 1475 1475 1474 1474 1473 1473 1472 1472 1471
1480 1480 1479 1478 1477 1477 1477 1477 1476 1476 1476 1476 1475 1475 1475 1475 1475 1475 1475 1473 1473 1472 1472 1472 1472 1472 1471 1470 1470 1469 1469 1468 1468 1468 1468 1467 1467 1466 1466 1465 1465 1464 1464
1477 1476 1475 1474 1474 1473 1473 1473 1472 1472 1472 1471 1471 1471 1471 1470 1470 1471 1471 1470 1469 1468 1468 1468 1467 1467 1466 1465 1464 1463 1462 1462 1461 1461 1460 1460 1460 1459 1459 1458 1457 1457 1456
1474 1473 1472 1471 1470 1470 1469 1469 1468 1468 1467 1467 1467 1467 1466 1466 1466 1466 1466 1466 1467 1465 1463 1463 1463 1461 1461 1460 1459 1457 1457 1456 1455 1455 1454 1453 1453 1452 1452 1451 1450 1449 1449
1471 1470 1469 1468 1467 1466 1466 1465 1464 1464 1464 1463 1463 1463 1463 1463 1462 1462 1462 1461 1461 1461 1459 1458 1458 1457 1456 1454 1453 1452 1451 1450 1449 1448 1447 1446 1446 1445 1444 1444 1443 1442 1441
1468 1467 1466 1465 1464 1464 1463 1462 1461 1461 1460 1460 1459 1459 1459 1459 1458 1458 1457 1457 1456 1456 1454 1453 1453 1452 1451 1450 1448 1446 1445 1444 1442 1441 1441 1440 1439 1438 1437 1436 1435 1434 1433
1465 1464 1463 1462 1461 1460 1460 1459 1458 1458 1457 1457 1456 1456 1455 1455 1454 1454 1453 1453 1452 1451 1450 1448 1448 1447 1446 1445 1443 1441 1440 1438 1437 1435 1435 1434 1432 1431 1430 1429 1427 1426 1426
1462 1461 1460 1459 1458 1457 1457 1456 1455 1455 1454 1454 1453 1453 1452 1452 1451 1450 1449 1449 1448 1447 1446 1445 1443 1442 1441 1440 1438 1436 1435 1433 1431 1430 1429 1427 1426 1424 1423 1421 1420 1418 1417
1459 1458 1457 1457 1456 1455 1454 1453 1452 1452 1451 1451 1450 1449 1449 1448 1448 1447 1446 1445 1444 1443 1442 1441 1439 1438 1436 1435 1433 1431 1429 1428 1426 1424 1423 1421 1419 1418 1416 1414 1413 1411 1410
1457 1456 1455 1454 1453 1452 1451 1451 1450 1449 1448 1448 1447 1446 1445 1445 1444 1444 1443 1442 1441 1440 1438 1437 1435 1434 1432 1430 1429 1427 1425 1422 1420 1419 1417 1415 1413 1411 1409 1408 1406 1405 1403
1454 1453 1452 1452 1451 1450 1449 1448 1447 1446 1445 1445 1444 1443 1442 1442 1441 1440 1439 1438 1437 1436 1435 1433 1431 1430 1428 1426 1425 1423 1421 1418 1415 1415 1412 1409 1408 1405 1403 1402 1400 1399 1397
1452 1451 1450 1449 1448 1447 1446 1445 1444 1443 1442 1442 1441 1440 1439 1438 1438 1437 1435 1434 1433 1432 1431 1430 1428 1426 1424 1423 1421 1419 1417 1415 1412 1410 1407 1403 1402 1400 1398 1396 1394 1393 1391
1449 1448 1447 1446 1446 1445 1444 1443 1442 1441 1440 1439 1438 1437 1436 1435 1434 1433 1432 1431 1429 1428 1427 1425 1424 1422 1420 1418 1417 1415 1413 1410 1407 1406 1404 1400 1397 1394 1392 1390 1388 1386 1385
1446 1445 1444 1444 1443 1442 1441 1440 1439 1438 1437 1436 1435 1435 1434 1433 1432 1430 1429 1427 1426 1424 1423 1421 1419 1418 1416 1414 1412 1411 1408 1406 1402 1400 1399 1396 1392 1389 1386 1384 1383 1381 1379
1442 1442 1441 1441 1440 1439 1438 1437 1437 1436 1435 1434 1433 1432 1431 1430 1429 1427 1426 1424 1422 1421 1419 1417 1416 1414 1412 1410 1408 1407 1404 1402 1399 1396 1395 1393 1389 1386 1381 1379 1378 1376 1373